Location: Newark
(43.4306°N, 0.3089°E)
Time: 12:20:25
(UTC+00:00)

A-11 Canister half - Pass Details

Date: 28 August 2019
Orbit: 1513 x 1686 km, 47.2° (Epoch: 19 September)

Event Time Altitude Azimuth Distance (km) Brightness Sun altitude
Rises 21:56:54 0° 294° (WNW) 4,757 12.4 -30.1°
Reaches altitude 10° 21:59:57 10° 292° (WNW) 3,793 11.7 -30.4°
Maximum altitude 22:09:31 68° 212° (SSW) 1,733 9.0 -31.4°
Enters shadow 22:10:55 62° 172° (S) 1,808 9.0 -31.5°
